Silver Peak Trail, Santa Catalina Island Weather observations

Data are for 10 minute period ending at time listed.
 Day   Time   Solar   Ave.   Ave.  Ave.  Vector    Max.   Stn.    Total
  of    of     Rad.   Air    Rel.  Wind   Wind     Wind   Baro.  Precip.
Year   Day            Temp.  Hum.  Speed  Dir.     Gust   Pres.         
2014   (PST)   W/m2    F      %     mph   deg.      mph    mb.     in.  
------------------------------------------------------------------------
 211   13:30  919.0    87   45.1     4    266.3     7.8    999.0   0.00  
 211   13:40  944.0    89   42.7     4    275.8     6.0    999.0   0.00  
 211   13:50  809.0    90   42.0     3    290.6     7.8    999.0   0.00  
 211   14:00  797.0    89   42.0     3    268.6     6.6    999.0   0.00  
 211   14:10  616.0    87   42.5     4    228.1     7.8    999.0   0.00  
 211   14:20  609.0    86   43.1     6    243.8     9.6    999.0   0.00  
 211   14:30  639.0    86   41.0     6    247.9    10.8    999.0   0.00  
 211   14:40  625.0    88   38.4     6    262.4     9.6    999.0   0.00  
 211   14:50  647.0    88   37.5     7    282.9    16.7    999.0   0.00  
 211   15:00  610.0    88   40.4     7    282.6    11.9    999.0   0.00  
 211   15:10  611.0    88   38.1     8    286.7    13.7    999.0   0.00  
 211   15:20  704.0    88   36.0    10    296.2    17.3    999.0   0.00  
 211   15:30  693.0    88   36.2    12    304.5    18.5    999.0   0.00  
 211   15:40  671.0    88   36.7    10    290.7    20.9    999.0   0.00  
 211   15:50  610.0    88   37.0    10    289.4    17.9    999.0   0.00  
 211   16:00  562.0    88   36.5     9    295.5    15.5    999.0   0.00  
 211   16:10  513.0    86   36.8    12    302.5    18.5    999.0   0.00  
 211   16:20  371.0    85   36.5    13    303.9    21.5    999.0   0.00  
 211   16:30  514.0    86   35.7    13    298.3    26.2    999.0   0.00  
 211   16:40  469.0    86   37.3    12    297.2    25.0    999.0   0.00  
 211   16:50  428.0    85   38.6    11    290.9    20.9    999.0   0.00  
 211   17:00  287.0    84   37.1    12    289.7    19.1    999.0   0.00  
 211   17:10  274.0    84   35.5    13    290.0    20.3    999.0   0.00  
 211   17:20  212.0    84   35.7    14    288.4    24.5    999.0   0.00  
 211   17:30  104.0    83   35.7    14    293.6    23.9    999.0   0.00  
 211   17:40   91.0    82   36.4    13    287.5    22.1    999.0   0.00  
 211   17:50   89.0    82   36.7    12    275.9    20.3    999.0   0.00  
 211   18:00   87.0    82   36.0    13    277.5    20.9    999.0   0.00  
 211   18:10   73.0    83   35.3    13    273.9    21.5    999.0   0.00  
 211   18:20   43.0    82   35.7    14    275.5    26.2    999.0   0.00  
 211   18:30   56.0    82   35.8    18    278.0    26.8    999.0   0.00  
 211   18:40   42.0    81   36.3    16    276.0    25.0    999.0   0.00  
 211   18:50   26.0    81   35.7    15    273.5    22.1    999.0   0.00  
 211   19:00    9.0    80   36.0    16    278.6    21.5    999.0   0.00  
 211   19:10    2.0    81   35.7    15    272.8    20.9    999.0   0.00  
 211   19:20    1.0    81   34.6    13    262.1    17.9    999.0   0.00  
 211   19:30    0.0    80   35.7    12    260.2    22.7    999.0   0.00  
 211   19:40    0.0    80   36.0    12    257.9    17.3    999.0   0.00  
 211   19:50    0.0    79   36.8    11    260.7    19.7    999.0   0.00  
 211   20:00    0.0    79   36.4    10    267.7    17.9    999.0   0.00  
 211   20:10    0.0    79   36.4    11    273.9    16.1    999.0   0.00  
 211   20:20    0.0    79   36.6    12    280.0    17.9    999.0   0.00  
 211   20:30    0.0    80   36.1    13    282.1    19.1    999.0   0.00  
 211   20:40    0.0    81   35.1    12    283.2    17.9    999.0   0.00  
 211   20:50    0.0    81   35.5    10    293.2    13.7    999.0   0.00  
 211   21:00    0.0    80   37.0     8    306.9    15.5    999.0   0.00  
 211   21:10    0.0    79   38.1    10    312.1    13.1    999.0   0.00  
 211   21:20    0.0    78   40.1     9    328.1    11.9    999.0   0.00  
 211   21:30    0.0    77   41.8     9    332.5    12.5    999.0   0.00  
 211   21:40    0.0    77   42.0    10    317.2    13.1    999.0   0.00  
 211   21:50    0.0    77   40.8    10    316.2    13.7    999.0   0.00  
 211   22:00    0.0    76   40.5    10    309.3    11.9    999.0   0.00  
 211   22:10    0.0    76   39.6    11    299.7    13.1    999.0   0.00  
 211   22:20    0.0    76   39.4    11    294.1    14.9    999.0   0.00  
 211   22:30    0.0    76   39.9    12    290.9    14.3    999.0   0.00  
 211   22:40    0.0    76   40.4    12    292.7    14.9    999.0   0.00  
 211   22:50    0.0    77   38.6    12    285.7    17.3    999.0   0.00  
 211   23:00    0.0    76   39.6    12    291.5    15.5    999.0   0.00  
 211   23:10    0.0    76   39.0    12    294.3    16.1    999.0   0.00  
 211   23:20    0.0    76   38.8    10    296.1    12.5    999.0   0.00  
 211   23:30    0.0    76   39.7    10    307.2    13.1    999.0   0.00  
 211   23:40    0.0    76   39.7    10    302.9    13.7    999.0   0.00  
 211   23:50    0.0    77   37.7     9    291.8    12.5    999.0   0.00  
 212    0:00    0.0    77   37.8     8    262.1    11.9    999.0   0.00  
 212    0:10    0.0    78   35.7    10    271.4    15.5    999.0   0.00  
 212    0:20    0.0    78   35.4    10    273.9    17.3    999.0   0.00  
 212    0:30    0.0    78   36.1    10    276.5    16.7    999.0   0.00  
 212    0:40    0.0    77   36.8    10    273.2    14.9    999.0   0.00  
 212    0:50    0.0    77   37.0     9    282.3    14.3    999.0   0.00  
 212    1:00    0.0    76   38.4    11    281.7    15.5    999.0   0.00  
 212    1:10    0.0    76   39.5    11    286.4    16.1    999.0   0.00  
 212    1:20    0.0    74   42.2    13    302.3    16.1    999.0   0.00  
 212    1:30    0.0    75   41.0    13    297.7    17.9    999.0   0.00  
 212    1:40    0.0    75   39.2    14    294.8    18.5    999.0   0.00  
 212    1:50    0.0    76   38.5    14    298.5    18.5    999.0   0.00  
 212    2:00    0.0    76   38.0    15    297.8    19.1    999.0   0.00  
 212    2:10    0.0    76   37.2    17    301.1    22.1    999.0   0.00  
 212    2:20    0.0    76   37.0    19    313.0    25.0    999.0   0.00  
 212    2:30    0.0    74   38.5    21    321.0    26.2    999.0   0.00  
 212    2:40    0.0    74   39.7    20    326.2    26.8    999.0   0.00  
 212    2:50    0.0    73   41.4    19    323.3    23.3    999.0   0.00  
 212    3:00    0.0    73   42.3    20    317.4    23.3    999.0   0.00  
 212    3:10    0.0    73   42.5    20    317.8    25.6    999.0   0.00  
 212    3:20    0.0    73   40.7    20    318.1    26.2    999.0   0.00  
 212    3:30    0.0    73   40.6    20    321.5    25.0    999.0   0.00  
 212    3:40    0.0    71   44.3    18    329.9    24.5    999.0   0.00  
 212    3:50    0.0    71   44.8    20    318.5    23.3    999.0   0.00  
 212    4:00    0.0    71   44.3    19    323.0    23.9    999.0   0.00  
 212    4:10    0.0    71   43.8    17    325.2    20.3    999.0   0.00  
 212    4:20    0.0    72   43.5    17    319.0    20.3    999.0   0.00  
 212    4:30    0.0    70   45.0    16    319.2    19.7    999.0   0.00  
 212    4:40    0.0    70   45.2    16    319.8    19.1    999.0   0.00  
 212    4:50    0.0    70   45.6    16    318.2    18.5    999.0   0.00  
 212    5:00    1.0    70   46.6    12    317.6    15.5    999.0   0.00  
 212    5:10    3.0    70   45.7    13    310.8    14.9    999.0   0.00  
 212    5:20   10.0    71   45.3    14    313.6    17.9    999.0   0.00  
 212    5:30   29.0    72   43.2    17    314.0    21.5    999.0   0.00  
 212    5:40   56.0    72   43.2    16    317.1    20.9    999.0   0.00  
 212    5:50   84.0    73   44.0    14    317.8    19.1    999.0   0.00  
 212    6:00  113.0    73   43.7    16    312.3    20.9    999.0   0.00  
 212    6:10  144.0    74   43.1    14    310.7    17.3    999.0   0.00  
 212    6:20  179.0    74   42.9    16    311.5    19.1    999.0   0.00  
 212    6:30  215.0    76   42.4    15    315.6    19.7    999.0   0.00  
 212    6:40  242.0    75   45.0    14    314.0    17.9    999.0   0.00  
 212    6:50  275.0    75   45.4    14    317.0    16.7    999.0   0.00  
 212    7:00  309.0    74   49.6    12    323.1    17.3    999.0   0.00  
 212    7:10  341.0    76   46.5     6    308.6    10.8    999.0   0.00  
 212    7:20  375.0    77   45.1     6    298.4    10.2    999.0   0.00  
 212    7:30  409.0    77   46.2     7    302.7    12.5    999.0   0.00  
 212    7:40  444.0    76   47.1     4    235.2     6.6    999.0   0.00  
 212    7:50  478.0    76   50.4     4    255.3     7.2    999.0   0.00  
 212    8:00  512.0    75   52.4     5    236.6     7.8    999.0   0.00  
 212    8:10  548.0    76   50.2     4    237.9     7.2    999.0   0.00  
 212    8:20  579.0    77   50.1     4    232.0     8.4    999.0   0.00  
 212    8:30  611.0    78   52.1     4    224.6     6.6    999.0   0.00  
 212    8:40  642.0    76   54.2     5    227.7     7.2    999.0   0.00  
 212    8:50  672.0    78   51.1     3    234.4     6.6    999.0   0.00  
 212    9:00  703.0    78   56.6     4    311.8     7.2    999.0   0.00  
 212    9:10  731.0    78   54.7     4    259.5     7.2    999.0   0.00  
 212    9:20  759.0    80   52.3     3    269.7     5.4    999.0   0.00  
 212    9:30  785.0    78   57.0     4    284.3     6.0    999.0   0.00  
 212    9:40  810.0    80   54.6     4    279.6     7.2    999.0   0.00  
 212    9:50  833.0    78   60.0     4    299.2     6.0    999.0   0.00  
 212   10:00  854.0    79   58.8     3    289.7     7.2    999.0   0.00  
 212   10:10  874.0    80   58.7     3     24.1     7.8    999.0   0.00  
 212   10:20  892.0    78   61.2     3     81.8     6.0    999.0   0.00  
 212   10:30  909.0    78   60.3     4     40.5     6.0    999.0   0.00  
 212   10:40  926.0    78   62.2     3     35.1     5.4    999.0   0.00  
 212   10:50  940.0    80   59.4     3    133.9     9.0    999.0   0.00  
 212   11:00  952.0    80   58.5     3    189.0     4.2    999.0   0.00  
 212   11:10  963.0    80   58.1     3    165.0     4.8    999.0   0.00  
 212   11:20  972.0    80   56.6     3    176.7     5.4    999.0   0.00  
 212   11:30  980.0    82   52.9     3    284.7     6.6    999.0   0.00  
 212   11:40  986.0    82   53.2     3    248.3     5.4    999.0   0.00  
 212   11:50  989.0    81   56.3     4    237.9     7.8    999.0   0.00  
 212   12:00  991.0    82   54.2     5    260.2     8.4    999.0   0.00  
 212   12:10  991.0    83   46.3     7    261.0    16.1    999.0   0.00  
 212   12:20  989.0    83   46.7     6    265.5    12.5    999.0   0.00  
 212   12:30  985.0    82   48.1     7    299.9    12.5    999.0   0.00  
 212   12:40  980.0    83   45.5     8    283.1    11.3    999.0   0.00  
 212   12:50  973.0    83   46.9     7    266.3    13.7    999.0   0.00  
 212   13:00  964.0    84   49.3     5    266.7    11.3    999.0   0.00  
 212   13:10  954.0    83   48.0     5    280.7     8.4    999.0   0.00  
 212   13:20  942.0    84   44.5     7    260.6    12.5    999.0   0.00  

Return to Silver Peak Trail graphs page.


Western Regional Climate Center,wrcc@dri.edu